,MapDate,Name,None,D0,D1,D2,D3,D4,ValidStart,ValidEnd,StatisticFormatID,SUMAREA,DSCI,RANK
0,20240625,Pacific Northwest DEWS,48.47,31.44,15.65,4.44,0.0,0.0,2024-06-25,2024-07-01,2,20.09,76.06,809.0
1,20240618,Pacific Northwest DEWS,60.2,20.89,15.31,3.59,0.0,0.0,2024-06-18,2024-06-24,2,18.9,62.28,903.0
2,20240611,Pacific Northwest DEWS,60.2,20.9,15.3,3.59,0.0,0.0,2024-06-11,2024-06-17,2,18.89,62.27,904.0
3,20240604,Pacific Northwest DEWS,62.34,17.96,16.1,3.59,0.0,0.0,2024-06-04,2024-06-10,2,19.69,60.93,910.0
4,20240528,Pacific Northwest DEWS,61.22,18.53,14.25,5.9,0.11,0.0,2024-05-28,2024-06-03,2,20.26,65.17,882.0
5,20240521,Pacific Northwest DEWS,62.65,18.68,12.67,5.43,0.57,0.0,2024-05-21,2024-05-27,2,18.67,62.59,899.5
6,20240514,Pacific Northwest DEWS,62.65,18.68,12.67,5.43,0.57,0.0,2024-05-14,2024-05-20,2,18.67,62.59,899.5
7,20240507,Pacific Northwest DEWS,51.98,27.95,12.66,6.83,0.57,0.0,2024-05-07,2024-05-13,2,20.06,76.04,810.0
8,20240430,Pacific Northwest DEWS,52.02,29.11,11.46,6.83,0.57,0.0,2024-04-30,2024-05-06,2,18.86,74.8,819.5
9,20240423,Pacific Northwest DEWS,52.02,29.11,11.46,6.83,0.57,0.0,2024-04-23,2024-04-29,2,18.86,74.8,819.5
10,20240416,Pacific Northwest DEWS,61.06,20.46,11.08,7.13,0.28,0.0,2024-04-16,2024-04-22,2,18.49,65.13,883.0
11,20240409,Pacific Northwest DEWS,58.41,21.93,12.61,7.06,0.0,0.0,2024-04-09,2024-04-15,2,19.67,68.33,860.0
12,20240402,Pacific Northwest DEWS,55.07,23.99,13.08,7.32,0.54,0.0,2024-04-02,2024-04-08,2,20.94,74.27,825.0
13,20240326,Pacific Northwest DEWS,56.49,23.39,12.26,7.32,0.54,0.0,2024-03-26,2024-04-01,2,20.12,72.03,835.0
14,20240319,Pacific Northwest DEWS,55.27,24.52,12.35,7.32,0.54,0.0,2024-03-19,2024-03-25,2,20.21,73.34,828.0
15,20240312,Pacific Northwest DEWS,54.2,25.07,12.54,7.08,1.1,0.0,2024-03-12,2024-03-18,2,20.72,75.79,812.0
16,20240305,Pacific Northwest DEWS,52.78,25.2,11.94,8.97,1.1,0.0,2024-03-05,2024-03-11,2,22.01,80.39,780.0
17,20240227,Pacific Northwest DEWS,51.91,20.38,17.62,8.99,1.1,0.0,2024-02-27,2024-03-04,2,27.71,86.99,731.0
18,20240220,Pacific Northwest DEWS,52.91,20.38,16.62,9.54,0.56,0.0,2024-02-20,2024-02-26,2,26.72,84.48,743.0
19,20240213,Pacific Northwest DEWS,58.99,14.3,17.29,9.42,0.0,0.0,2024-02-13,2024-02-19,2,26.71,77.14,802.0
20,20240206,Pacific Northwest DEWS,60.07,12.98,18.63,8.32,0.0,0.0,2024-02-06,2024-02-12,2,26.95,75.2,816.0
21,20240130,Pacific Northwest DEWS,55.94,16.46,18.85,8.75,0.0,0.0,2024-01-30,2024-02-05,2,27.6,80.41,779.0
22,20240123,Pacific Northwest DEWS,49.8,21.6,19.35,9.25,0.0,0.0,2024-01-23,2024-01-29,2,28.6,88.05,726.0
23,20240116,Pacific Northwest DEWS,47.13,22.21,25.2,5.46,0.0,0.0,2024-01-16,2024-01-22,2,30.66,88.99,723.0
24,20240109,Pacific Northwest DEWS,45.19,23.99,25.36,5.46,0.0,0.0,2024-01-09,2024-01-15,2,30.82,91.09,706.0
25,20240102,Pacific Northwest DEWS,44.06,29.57,21.89,4.48,0.0,0.0,2024-01-02,2024-01-08,2,26.37,86.79,733.0
26,20231226,Pacific Northwest DEWS,44.06,31.73,19.73,4.48,0.0,0.0,2023-12-26,2024-01-01,2,24.21,84.63,742.0
27,20231219,Pacific Northwest DEWS,45.95,31.8,17.78,4.48,0.0,0.0,2023-12-19,2023-12-25,2,22.26,80.8,775.0
28,20231212,Pacific Northwest DEWS,45.19,32.85,15.73,6.23,0.0,0.0,2023-12-12,2023-12-18,2,21.96,83.0,748.5
29,20231205,Pacific Northwest DEWS,46.75,28.65,17.52,7.07,0.0,0.0,2023-12-05,2023-12-11,2,24.59,84.9,740.5
30,20231128,Pacific Northwest DEWS,41.22,22.51,22.34,13.93,0.0,0.0,2023-11-28,2023-12-04,2,36.27,108.98,630.0
31,20231121,Pacific Northwest DEWS,43.72,18.71,24.08,13.48,0.0,0.0,2023-11-21,2023-11-27,2,37.56,107.31,646.0
32,20231114,Pacific Northwest DEWS,42.33,17.42,24.06,13.76,2.43,0.0,2023-11-14,2023-11-20,2,40.25,116.54,587.0
33,20231107,Pacific Northwest DEWS,40.92,17.44,21.64,17.24,2.77,0.0,2023-11-07,2023-11-13,2,41.65,123.52,555.0
34,20231031,Pacific Northwest DEWS,40.46,13.89,22.03,19.97,3.65,0.0,2023-10-31,2023-11-06,2,45.65,132.46,526.0
35,20231024,Pacific Northwest DEWS,38.3,14.36,23.66,20.03,3.65,0.0,2023-10-24,2023-10-30,2,47.34,136.37,497.0
36,20231017,Pacific Northwest DEWS,37.45,15.0,23.56,20.24,3.74,0.0,2023-10-17,2023-10-23,2,47.54,137.8,487.0
37,20231010,Pacific Northwest DEWS,35.34,15.6,22.08,21.39,5.59,0.0,2023-10-10,2023-10-16,2,49.06,146.29,444.0
38,20231003,Pacific Northwest DEWS,34.73,15.79,21.66,22.24,5.59,0.0,2023-10-03,2023-10-09,2,49.49,148.19,430.0
39,20230926,Pacific Northwest DEWS,34.73,15.16,21.42,21.21,7.48,0.0,2023-09-26,2023-10-02,2,50.11,151.55,411.0
40,20230919,Pacific Northwest DEWS,34.55,15.3,21.44,21.23,7.48,0.0,2023-09-19,2023-09-25,2,50.15,151.79,410.0
41,20230912,Pacific Northwest DEWS,33.69,15.22,26.8,20.06,4.24,0.0,2023-09-12,2023-09-18,2,51.1,145.96,448.0
42,20230905,Pacific Northwest DEWS,33.0,15.91,28.57,18.28,4.24,0.0,2023-09-05,2023-09-11,2,51.09,144.85,456.0
43,20230829,Pacific Northwest DEWS,31.37,16.52,29.59,18.28,4.24,0.0,2023-08-29,2023-09-04,2,52.11,147.5,432.0
44,20230822,Pacific Northwest DEWS,32.73,21.98,25.52,18.77,1.01,0.0,2023-08-22,2023-08-28,2,45.3,133.37,522.0
45,20230815,Pacific Northwest DEWS,30.49,23.07,27.1,19.34,0.0,0.0,2023-08-15,2023-08-21,2,46.44,135.29,504.0
46,20230808,Pacific Northwest DEWS,30.18,23.85,27.48,18.49,0.0,0.0,2023-08-08,2023-08-14,2,45.97,134.28,511.0
47,20230801,Pacific Northwest DEWS,30.1,24.01,28.34,17.54,0.0,0.0,2023-08-01,2023-08-07,2,45.88,133.31,523.0
48,20230725,Pacific Northwest DEWS,32.7,22.9,30.74,13.66,0.0,0.0,2023-07-25,2023-07-31,2,44.4,125.36,551.0
49,20230718,Pacific Northwest DEWS,33.64,22.88,33.83,9.65,0.0,0.0,2023-07-18,2023-07-24,2,43.48,119.49,569.5
50,20230711,Pacific Northwest DEWS,34.04,22.48,33.83,9.65,0.0,0.0,2023-07-11,2023-07-17,2,43.48,119.09,573.0
51,20230704,Pacific Northwest DEWS,35.55,26.55,32.95,4.95,0.0,0.0,2023-07-04,2023-07-10,2,37.9,107.3,647.0
52,20230627,Pacific Northwest DEWS,34.35,28.75,33.08,3.82,0.0,0.0,2023-06-27,2023-07-03,2,36.9,106.37,649.0
53,20230620,Pacific Northwest DEWS,37.3,30.61,28.2,3.89,0.0,0.0,2023-06-20,2023-06-26,2,32.09,98.68,679.0
54,20230613,Pacific Northwest DEWS,36.47,34.48,25.17,3.89,0.0,0.0,2023-06-13,2023-06-19,2,29.06,96.49,686.0
55,20230606,Pacific Northwest DEWS,35.32,36.68,23.28,4.72,0.0,0.0,2023-06-06,2023-06-12,2,28.0,97.4,683.0
56,20230530,Pacific Northwest DEWS,34.0,37.47,23.07,5.47,0.0,0.0,2023-05-30,2023-06-05,2,28.54,100.02,672.0
57,20230523,Pacific Northwest DEWS,40.81,28.38,24.87,5.94,0.0,0.0,2023-05-23,2023-05-29,2,30.81,95.94,688.0
58,20230516,Pacific Northwest DEWS,38.34,29.51,25.53,5.73,0.89,0.0,2023-05-16,2023-05-22,2,32.15,101.32,662.0
59,20230509,Pacific Northwest DEWS,37.22,28.71,26.78,6.14,1.15,0.0,2023-05-09,2023-05-15,2,34.07,105.29,651.0
60,20230502,Pacific Northwest DEWS,33.89,30.46,25.72,7.88,2.05,0.0,2023-05-02,2023-05-08,2,35.65,113.74,603.0
61,20230425,Pacific Northwest DEWS,33.89,32.0,26.2,5.86,2.05,0.0,2023-04-25,2023-05-01,2,34.11,110.18,622.0
62,20230418,Pacific Northwest DEWS,30.48,35.26,25.87,6.19,2.2,0.0,2023-04-18,2023-04-24,2,34.26,114.37,600.0
63,20230411,Pacific Northwest DEWS,26.68,38.1,26.47,6.55,2.2,0.0,2023-04-11,2023-04-17,2,35.22,119.49,569.5
64,20230404,Pacific Northwest DEWS,22.08,39.76,28.3,7.66,2.2,0.0,2023-04-04,2023-04-10,2,38.16,128.14,546.5
65,20230328,Pacific Northwest DEWS,17.76,45.33,24.08,10.63,1.7,0.5,2023-03-28,2023-04-03,2,36.91,134.68,507.0
66,20230321,Pacific Northwest DEWS,14.83,29.18,42.01,11.42,2.05,0.5,2023-03-21,2023-03-27,2,55.98,158.16,379.0
67,20230314,Pacific Northwest DEWS,14.76,26.94,40.07,13.44,4.3,0.5,2023-03-14,2023-03-20,2,58.31,167.1,328.0
68,20230307,Pacific Northwest DEWS,13.28,28.4,39.39,13.8,4.64,0.5,2023-03-07,2023-03-13,2,58.33,169.64,316.0
69,20230228,Pacific Northwest DEWS,15.6,25.29,40.27,13.69,4.64,0.5,2023-02-28,2023-03-06,2,59.1,167.96,319.5
70,20230221,Pacific Northwest DEWS,15.6,25.29,40.27,13.69,4.64,0.5,2023-02-21,2023-02-27,2,59.1,167.96,319.5
71,20230214,Pacific Northwest DEWS,20.79,25.08,35.3,13.69,4.64,0.5,2023-02-14,2023-02-20,2,54.13,157.81,382.0
72,20230207,Pacific Northwest DEWS,21.48,24.39,35.3,13.65,4.69,0.5,2023-02-07,2023-02-13,2,54.14,157.2,385.0
73,20230131,Pacific Northwest DEWS,22.74,25.18,32.94,13.81,4.82,0.5,2023-01-31,2023-02-06,2,52.07,154.27,395.0
74,20230124,Pacific Northwest DEWS,22.74,30.25,27.87,13.81,4.82,0.5,2023-01-24,2023-01-30,2,47.0,149.2,422.0
75,20230117,Pacific Northwest DEWS,20.27,32.84,26.51,14.32,5.56,0.5,2023-01-17,2023-01-23,2,46.89,153.56,396.0
76,20230110,Pacific Northwest DEWS,14.86,38.82,22.32,14.81,8.7,0.5,2023-01-10,2023-01-16,2,46.33,165.19,344.0
77,20230103,Pacific Northwest DEWS,14.8,36.36,24.82,14.74,8.8,0.5,2023-01-03,2023-01-09,2,48.86,167.92,321.0
78,20221227,Pacific Northwest DEWS,7.43,40.73,28.37,14.18,8.8,0.5,2022-12-27,2023-01-02,2,51.85,177.71,285.0
79,20221220,Pacific Northwest DEWS,7.43,39.4,29.69,14.18,8.8,0.5,2022-12-20,2022-12-26,2,53.17,179.02,279.5
80,20221213,Pacific Northwest DEWS,7.43,39.4,29.69,14.18,8.8,0.5,2022-12-13,2022-12-19,2,53.17,179.02,279.5
81,20221206,Pacific Northwest DEWS,5.42,38.47,32.2,14.31,9.11,0.5,2022-12-06,2022-12-12,2,56.12,184.74,260.0
82,20221129,Pacific Northwest DEWS,3.68,35.86,36.52,14.33,9.11,0.5,2022-11-29,2022-12-05,2,60.46,190.83,240.0
83,20221122,Pacific Northwest DEWS,3.68,34.75,37.63,14.33,9.11,0.5,2022-11-22,2022-11-28,2,61.57,191.94,239.0
84,20221115,Pacific Northwest DEWS,3.68,34.75,37.43,14.54,9.11,0.5,2022-11-15,2022-11-21,2,61.58,192.17,237.0
85,20221108,Pacific Northwest DEWS,3.68,34.3,37.15,14.62,9.75,0.5,2022-11-08,2022-11-14,2,62.02,193.96,236.0
86,20221101,Pacific Northwest DEWS,0.16,17.73,50.69,19.56,11.36,0.5,2022-11-01,2022-11-07,2,82.11,225.73,153.0
87,20221025,Pacific Northwest DEWS,0.16,20.53,46.48,20.98,11.36,0.5,2022-10-25,2022-10-31,2,79.32,224.37,155.0
88,20221018,Pacific Northwest DEWS,0.16,20.94,47.08,19.96,11.36,0.5,2022-10-18,2022-10-24,2,78.9,222.92,159.0
89,20221011,Pacific Northwest DEWS,0.16,29.27,45.17,13.55,11.36,0.5,2022-10-11,2022-10-17,2,70.58,208.2,192.0
90,20221004,Pacific Northwest DEWS,0.16,34.61,39.84,13.53,11.36,0.5,2022-10-04,2022-10-10,2,65.23,202.82,201.0
91,20220927,Pacific Northwest DEWS,2.06,35.45,38.38,12.26,11.36,0.5,2022-09-27,2022-10-03,2,62.5,196.93,217.0
92,20220920,Pacific Northwest DEWS,8.91,31.28,35.82,12.14,11.36,0.5,2022-09-20,2022-09-26,2,59.82,187.28,256.0
93,20220913,Pacific Northwest DEWS,18.39,29.85,27.76,12.14,11.36,0.5,2022-09-13,2022-09-19,2,51.76,169.73,315.0
94,20220906,Pacific Northwest DEWS,29.6,30.83,15.59,12.12,11.36,0.5,2022-09-06,2022-09-12,2,39.57,146.31,443.0
95,20220830,Pacific Northwest DEWS,29.52,30.9,15.98,11.74,11.36,0.5,2022-08-30,2022-09-05,2,39.58,146.02,446.0
96,20220823,Pacific Northwest DEWS,32.52,28.34,15.55,11.74,11.36,0.5,2022-08-23,2022-08-29,2,39.15,142.6,461.0
97,20220816,Pacific Northwest DEWS,38.52,22.34,15.55,11.74,11.36,0.5,2022-08-16,2022-08-22,2,39.15,136.6,495.0
98,20220809,Pacific Northwest DEWS,44.08,17.95,14.16,11.79,11.53,0.5,2022-08-09,2022-08-15,2,37.98,130.26,533.0
99,20220802,Pacific Northwest DEWS,43.89,16.57,15.16,11.52,12.23,0.63,2022-08-02,2022-08-08,2,39.54,133.52,520.0
100,20220726,Pacific Northwest DEWS,42.88,17.59,15.57,11.57,11.76,0.63,2022-07-26,2022-08-01,2,39.53,133.63,518.0
101,20220719,Pacific Northwest DEWS,42.88,17.59,15.62,11.61,11.68,0.63,2022-07-19,2022-07-25,2,39.54,133.53,519.0
102,20220712,Pacific Northwest DEWS,43.05,17.08,15.99,11.58,11.68,0.63,2022-07-12,2022-07-18,2,39.88,133.67,517.0
103,20220705,Pacific Northwest DEWS,41.2,18.87,16.0,11.62,11.68,0.63,2022-07-05,2022-07-11,2,39.93,135.6,501.0
104,20220628,Pacific Northwest DEWS,40.65,18.77,16.66,11.62,11.68,0.63,2022-06-28,2022-07-04,2,40.59,136.82,494.0
105,20220621,Pacific Northwest DEWS,38.2,19.53,18.32,11.65,11.68,0.63,2022-06-21,2022-06-27,2,42.28,140.99,476.0
106,20220614,Pacific Northwest DEWS,35.35,21.79,17.46,10.12,14.59,0.69,2022-06-14,2022-06-20,2,42.86,148.88,424.0
107,20220607,Pacific Northwest DEWS,26.91,19.93,20.17,15.19,15.76,2.05,2022-06-07,2022-06-13,2,53.17,179.13,278.0
108,20220531,Pacific Northwest DEWS,26.62,15.6,19.43,19.98,14.19,4.19,2022-05-31,2022-06-06,2,57.79,192.11,238.0
109,20220524,Pacific Northwest DEWS,26.16,15.61,18.79,20.32,14.92,4.19,2022-05-24,2022-05-30,2,58.22,194.78,229.0
110,20220517,Pacific Northwest DEWS,21.64,12.36,21.77,25.38,14.1,4.74,2022-05-17,2022-05-23,2,65.99,212.14,184.5
111,20220510,Pacific Northwest DEWS,22.77,9.44,23.02,24.65,15.0,5.12,2022-05-10,2022-05-16,2,67.79,215.03,174.0
112,20220503,Pacific Northwest DEWS,20.15,10.33,21.42,27.01,15.51,5.58,2022-05-03,2022-05-09,2,69.52,224.14,156.0
113,20220426,Pacific Northwest DEWS,21.87,7.92,19.94,27.56,16.57,6.14,2022-04-26,2022-05-02,2,70.21,227.46,147.0
114,20220419,Pacific Northwest DEWS,21.06,8.73,16.72,31.06,16.29,6.14,2022-04-19,2022-04-25,2,70.21,231.21,140.0
115,20220412,Pacific Northwest DEWS,20.87,8.49,15.02,31.33,18.96,5.33,2022-04-12,2022-04-18,2,70.64,235.01,137.0
116,20220405,Pacific Northwest DEWS,20.44,8.86,15.09,32.27,18.02,5.33,2022-04-05,2022-04-11,2,70.71,234.58,138.0
117,20220329,Pacific Northwest DEWS,23.92,5.26,23.65,27.13,14.71,5.33,2022-03-29,2022-04-04,2,70.82,219.44,169.0
118,20220322,Pacific Northwest DEWS,23.55,5.44,23.84,27.26,14.58,5.33,2022-03-22,2022-03-28,2,71.01,219.87,167.0
119,20220315,Pacific Northwest DEWS,22.22,5.51,26.04,26.08,14.56,5.58,2022-03-15,2022-03-21,2,72.26,221.97,165.0
120,20220308,Pacific Northwest DEWS,22.22,5.17,26.3,26.39,14.17,5.76,2022-03-08,2022-03-14,2,72.62,222.42,161.0
121,20220301,Pacific Northwest DEWS,17.09,8.79,28.73,26.84,12.8,5.76,2022-03-01,2022-03-07,2,74.13,226.77,148.5
122,20220222,Pacific Northwest DEWS,16.75,9.12,29.05,26.53,12.79,5.76,2022-02-22,2022-02-28,2,74.13,226.77,148.5
123,20220215,Pacific Northwest DEWS,16.84,9.05,27.44,28.12,12.79,5.76,2022-02-15,2022-02-21,2,74.11,228.25,144.0
124,20220208,Pacific Northwest DEWS,16.84,9.78,26.8,29.33,11.49,5.76,2022-02-08,2022-02-14,2,73.38,226.13,152.0
125,20220201,Pacific Northwest DEWS,17.06,9.56,27.11,29.03,11.49,5.76,2022-02-01,2022-02-07,2,73.39,225.63,154.0
126,20220125,Pacific Northwest DEWS,16.51,10.07,27.15,29.03,11.49,5.76,2022-01-25,2022-01-31,2,73.43,226.22,150.5
127,20220118,Pacific Northwest DEWS,16.51,10.07,27.15,29.03,11.49,5.76,2022-01-18,2022-01-24,2,73.43,226.22,150.5
128,20220111,Pacific Northwest DEWS,16.48,10.1,27.15,27.32,13.2,5.76,2022-01-11,2022-01-17,2,73.43,227.96,146.0
129,20220104,Pacific Northwest DEWS,15.92,8.11,27.72,26.13,15.63,6.5,2022-01-04,2022-01-10,2,75.98,236.96,136.0
130,20211228,Pacific Northwest DEWS,14.84,5.87,22.57,30.05,19.73,6.94,2021-12-28,2022-01-03,2,79.29,254.78,123.0
131,20211221,Pacific Northwest DEWS,10.93,6.1,16.84,33.12,26.03,6.98,2021-12-21,2021-12-27,2,82.97,278.16,88.0
132,20211214,Pacific Northwest DEWS,10.07,1.73,17.83,34.06,28.71,7.59,2021-12-14,2021-12-20,2,88.19,292.36,66.0
133,20211207,Pacific Northwest DEWS,10.07,1.27,13.52,36.82,30.51,7.82,2021-12-07,2021-12-13,2,88.67,299.91,57.0
134,20211130,Pacific Northwest DEWS,9.09,1.76,13.14,35.81,28.46,11.74,2021-11-30,2021-12-06,2,89.15,308.01,51.5
135,20211123,Pacific Northwest DEWS,9.09,1.76,13.14,35.81,28.46,11.74,2021-11-23,2021-11-29,2,89.15,308.01,51.5
136,20211116,Pacific Northwest DEWS,9.09,1.76,13.14,35.01,29.26,11.74,2021-11-16,2021-11-22,2,89.15,308.81,49.0
137,20211109,Pacific Northwest DEWS,8.96,1.68,8.26,36.48,30.74,13.88,2021-11-09,2021-11-15,2,89.36,320.0,44.0
138,20211102,Pacific Northwest DEWS,8.91,1.63,5.32,38.61,30.72,14.8,2021-11-02,2021-11-08,2,89.45,324.98,39.0
139,20211026,Pacific Northwest DEWS,7.19,1.98,6.26,31.5,34.44,18.63,2021-10-26,2021-11-01,2,90.83,339.91,15.0
140,20211019,Pacific Northwest DEWS,6.22,2.99,6.22,27.25,34.92,22.41,2021-10-19,2021-10-25,2,90.8,348.91,11.0
141,20211012,Pacific Northwest DEWS,6.19,3.02,6.07,28.06,33.81,22.85,2021-10-12,2021-10-18,2,90.79,348.83,12.0
142,20211005,Pacific Northwest DEWS,0.0,6.67,8.5,26.63,35.35,22.85,2021-10-05,2021-10-11,2,93.33,359.21,10.0
143,20210928,Pacific Northwest DEWS,0.0,6.65,8.51,27.34,33.43,24.06,2021-09-28,2021-10-04,2,93.34,359.71,7.0
144,20210921,Pacific Northwest DEWS,0.0,6.65,8.52,27.34,33.87,23.62,2021-09-21,2021-09-27,2,93.35,359.29,9.0
145,20210914,Pacific Northwest DEWS,0.0,5.8,7.36,25.39,36.66,24.79,2021-09-14,2021-09-20,2,94.2,367.28,1.0
146,20210907,Pacific Northwest DEWS,0.0,5.8,8.46,24.06,36.47,25.21,2021-09-07,2021-09-13,2,94.2,366.83,3.0
147,20210831,Pacific Northwest DEWS,0.0,5.8,8.45,24.07,36.47,25.21,2021-08-31,2021-09-06,2,94.2,366.84,2.0
148,20210824,Pacific Northwest DEWS,0.0,5.81,8.59,25.9,34.85,24.85,2021-08-24,2021-08-30,2,94.19,364.34,5.0
149,20210817,Pacific Northwest DEWS,0.0,5.81,8.59,25.9,34.5,25.2,2021-08-17,2021-08-23,2,94.19,364.69,4.0
150,20210810,Pacific Northwest DEWS,0.0,6.01,9.97,25.61,33.66,24.76,2021-08-10,2021-08-16,2,94.0,361.22,6.0
151,20210803,Pacific Northwest DEWS,0.0,6.78,9.66,25.3,33.72,24.54,2021-08-03,2021-08-09,2,93.22,359.58,8.0
152,20210727,Pacific Northwest DEWS,0.0,6.78,15.48,22.68,33.23,21.84,2021-07-27,2021-08-02,2,93.23,347.9,13.0
153,20210720,Pacific Northwest DEWS,0.0,7.51,16.57,31.52,28.15,16.24,2021-07-20,2021-07-26,2,92.48,329.01,36.0
154,20210713,Pacific Northwest DEWS,0.0,8.31,19.53,32.96,30.64,8.56,2021-07-13,2021-07-19,2,91.69,311.61,47.0
155,20210706,Pacific Northwest DEWS,1.13,12.19,20.4,34.55,28.55,3.18,2021-07-06,2021-07-12,2,86.68,286.74,77.0
156,20210629,Pacific Northwest DEWS,4.62,10.9,23.5,31.68,27.35,1.95,2021-06-29,2021-07-05,2,84.48,272.09,93.0
157,20210622,Pacific Northwest DEWS,5.33,14.84,26.42,33.07,18.38,1.95,2021-06-22,2021-06-28,2,79.82,250.16,125.0
158,20210615,Pacific Northwest DEWS,5.33,18.06,27.25,29.48,17.93,1.95,2021-06-15,2021-06-21,2,76.61,242.47,131.0
159,20210608,Pacific Northwest DEWS,5.15,16.75,27.56,31.74,16.84,1.95,2021-06-08,2021-06-14,2,78.09,244.2,127.0
160,20210601,Pacific Northwest DEWS,7.79,20.69,33.65,26.96,9.64,1.27,2021-06-01,2021-06-07,2,71.52,213.78,178.0
161,20210525,Pacific Northwest DEWS,8.43,22.35,33.72,24.58,9.64,1.27,2021-05-25,2021-05-31,2,69.21,208.44,191.0
162,20210518,Pacific Northwest DEWS,7.76,23.44,34.39,24.9,8.25,1.27,2021-05-18,2021-05-24,2,68.81,206.27,194.0
163,20210511,Pacific Northwest DEWS,8.76,26.82,30.73,24.17,8.25,1.27,2021-05-11,2021-05-17,2,64.42,200.14,209.0
164,20210504,Pacific Northwest DEWS,8.76,29.72,30.68,21.31,8.25,1.27,2021-05-04,2021-05-10,2,61.51,194.36,233.0
165,20210427,Pacific Northwest DEWS,11.06,33.57,32.7,17.4,4.49,0.79,2021-04-27,2021-05-03,2,55.38,173.08,308.0
166,20210420,Pacific Northwest DEWS,14.59,33.35,32.21,14.58,4.49,0.79,2021-04-20,2021-04-26,2,52.07,163.42,352.0
167,20210413,Pacific Northwest DEWS,30.2,30.07,21.49,12.96,4.49,0.79,2021-04-13,2021-04-19,2,39.73,133.84,513.0
168,20210406,Pacific Northwest DEWS,38.21,27.1,17.68,12.07,4.42,0.53,2021-04-06,2021-04-12,2,34.7,119.0,574.0
169,20210330,Pacific Northwest DEWS,40.0,26.38,16.76,12.15,4.71,0.0,2021-03-30,2021-04-05,2,33.62,115.19,594.0
170,20210323,Pacific Northwest DEWS,45.16,21.9,16.08,12.15,4.71,0.0,2021-03-23,2021-03-29,2,32.94,109.35,627.0
171,20210316,Pacific Northwest DEWS,44.86,21.63,15.65,13.15,4.71,0.0,2021-03-16,2021-03-22,2,33.51,111.22,614.0
172,20210309,Pacific Northwest DEWS,45.85,20.28,16.01,13.15,4.71,0.0,2021-03-09,2021-03-15,2,33.87,110.59,615.0
173,20210302,Pacific Northwest DEWS,45.85,20.11,15.06,14.27,4.71,0.0,2021-03-02,2021-03-08,2,34.04,111.88,612.0
174,20210223,Pacific Northwest DEWS,30.53,33.75,14.82,15.57,5.33,0.0,2021-02-23,2021-03-01,2,35.72,131.42,530.0
175,20210216,Pacific Northwest DEWS,30.04,33.17,14.18,15.49,7.12,0.0,2021-02-16,2021-02-22,2,36.79,136.48,496.0
176,20210209,Pacific Northwest DEWS,29.27,33.07,14.65,14.88,8.13,0.0,2021-02-09,2021-02-15,2,37.66,139.53,480.0
177,20210202,Pacific Northwest DEWS,28.35,33.63,14.92,15.08,8.03,0.0,2021-02-02,2021-02-08,2,38.03,140.83,478.0
178,20210126,Pacific Northwest DEWS,36.45,26.95,12.31,15.0,9.3,0.0,2021-01-26,2021-02-01,2,36.61,133.77,515.5
179,20210119,Pacific Northwest DEWS,39.04,24.89,11.56,14.76,9.75,0.0,2021-01-19,2021-01-25,2,36.07,131.29,531.0
180,20210112,Pacific Northwest DEWS,39.28,23.86,12.16,14.75,9.96,0.0,2021-01-12,2021-01-18,2,36.87,132.27,527.0
181,20210105,Pacific Northwest DEWS,39.55,22.42,12.71,14.55,10.77,0.0,2021-01-05,2021-01-11,2,38.03,134.57,508.0
182,20201229,Pacific Northwest DEWS,38.14,21.09,12.88,17.15,10.74,0.0,2020-12-29,2021-01-04,2,40.77,141.26,475.0
183,20201222,Pacific Northwest DEWS,38.14,21.09,12.88,16.55,11.34,0.0,2020-12-22,2020-12-28,2,40.77,141.86,469.0
184,20201215,Pacific Northwest DEWS,37.85,21.17,12.93,16.64,11.4,0.0,2020-12-15,2020-12-21,2,40.97,142.55,464.0
185,20201208,Pacific Northwest DEWS,37.2,21.24,13.55,16.61,11.4,0.0,2020-12-08,2020-12-14,2,41.56,143.77,459.0
186,20201201,Pacific Northwest DEWS,38.22,21.21,12.56,14.79,13.22,0.0,2020-12-01,2020-12-07,2,40.57,143.58,460.0
187,20201124,Pacific Northwest DEWS,34.51,25.09,12.19,15.15,13.06,0.0,2020-11-24,2020-11-30,2,40.4,147.16,437.0
188,20201117,Pacific Northwest DEWS,34.05,25.55,12.19,15.47,12.75,0.0,2020-11-17,2020-11-23,2,40.41,147.34,433.0
189,20201110,Pacific Northwest DEWS,28.68,29.05,13.07,13.81,15.39,0.0,2020-11-10,2020-11-16,2,42.27,158.18,378.0
190,20201103,Pacific Northwest DEWS,26.69,27.86,15.31,14.15,16.0,0.0,2020-11-03,2020-11-09,2,45.46,164.93,346.0
191,20201027,Pacific Northwest DEWS,24.57,30.75,15.03,14.36,15.29,0.0,2020-10-27,2020-11-02,2,44.68,165.05,345.0
192,20201020,Pacific Northwest DEWS,19.88,35.35,15.1,14.37,15.29,0.0,2020-10-20,2020-10-26,2,44.76,169.82,314.0
193,20201013,Pacific Northwest DEWS,19.47,27.4,22.67,15.41,15.05,0.0,2020-10-13,2020-10-19,2,53.13,179.17,277.0
194,20201006,Pacific Northwest DEWS,19.47,27.6,22.87,15.6,14.46,0.0,2020-10-06,2020-10-12,2,52.93,177.98,284.0
195,20200929,Pacific Northwest DEWS,21.7,27.19,22.28,15.1,13.73,0.0,2020-09-29,2020-10-05,2,51.11,171.97,310.0
196,20200922,Pacific Northwest DEWS,13.71,38.17,18.66,15.34,14.13,0.0,2020-09-22,2020-09-28,2,48.13,178.03,283.0
197,20200915,Pacific Northwest DEWS,17.93,37.32,17.65,15.8,11.3,0.0,2020-09-15,2020-09-21,2,44.75,165.22,343.0
198,20200908,Pacific Northwest DEWS,34.24,26.53,13.98,16.41,8.84,0.0,2020-09-08,2020-09-14,2,39.23,139.08,481.0
199,20200901,Pacific Northwest DEWS,39.8,21.99,13.68,18.27,6.25,0.0,2020-09-01,2020-09-07,2,38.2,129.16,539.0
200,20200825,Pacific Northwest DEWS,44.8,17.87,13.77,17.31,6.25,0.0,2020-08-25,2020-08-31,2,37.33,122.34,556.0
201,20200818,Pacific Northwest DEWS,46.01,18.1,12.94,17.12,5.83,0.0,2020-08-18,2020-08-24,2,35.89,118.66,576.0
202,20200811,Pacific Northwest DEWS,48.34,15.77,12.94,17.12,5.83,0.0,2020-08-11,2020-08-17,2,35.89,116.33,589.0
203,20200804,Pacific Northwest DEWS,48.34,15.8,13.75,17.67,4.43,0.0,2020-08-04,2020-08-10,2,35.85,114.03,602.0
204,20200728,Pacific Northwest DEWS,49.51,14.64,13.75,17.67,4.43,0.0,2020-07-28,2020-08-03,2,35.85,112.87,608.0
205,20200721,Pacific Northwest DEWS,49.51,14.65,13.74,17.67,4.43,0.0,2020-07-21,2020-07-27,2,35.84,112.86,609.0
206,20200714,Pacific Northwest DEWS,49.51,14.7,13.78,19.06,2.96,0.0,2020-07-14,2020-07-20,2,35.8,111.28,613.0
207,20200707,Pacific Northwest DEWS,49.51,14.91,14.78,18.61,2.2,0.0,2020-07-07,2020-07-13,2,35.59,109.1,628.0
208,20200630,Pacific Northwest DEWS,48.88,14.75,15.8,18.67,1.89,0.0,2020-06-30,2020-07-06,2,36.36,109.92,623.0
209,20200623,Pacific Northwest DEWS,42.13,18.63,18.72,18.83,1.7,0.0,2020-06-23,2020-06-29,2,39.25,119.36,571.0
210,20200616,Pacific Northwest DEWS,39.62,20.92,19.33,18.43,1.7,0.0,2020-06-16,2020-06-22,2,39.46,121.67,558.0
211,20200609,Pacific Northwest DEWS,40.27,18.05,23.29,16.68,1.7,0.0,2020-06-09,2020-06-15,2,41.67,121.47,560.0
212,20200602,Pacific Northwest DEWS,38.07,19.52,24.25,16.42,1.73,0.0,2020-06-02,2020-06-08,2,42.4,124.2,552.0
213,20200526,Pacific Northwest DEWS,35.69,21.16,24.74,15.93,2.48,0.0,2020-05-26,2020-06-01,2,43.15,128.35,542.0
214,20200519,Pacific Northwest DEWS,31.04,24.9,25.87,15.3,2.9,0.0,2020-05-19,2020-05-25,2,44.07,134.14,512.0
215,20200512,Pacific Northwest DEWS,28.88,28.25,24.5,15.28,3.09,0.0,2020-05-12,2020-05-18,2,42.87,135.45,502.0